TimePDT,TemperatureF,Dew PointF,Humidity,Sea Level PressureIn,VisibilityMPH,Wind Direction,Wind SpeedMPH,Gust SpeedMPH,PrecipitationIn,Events,Conditions,WindDirDegrees,DateUTC
12:56 AM,60.1,48.0,64,29.96,10.0,West,8.1,16.1,N/A,,Clear,280,2013-09-25 07:56:00
1:56 AM,60.1,46.9,62,29.96,10.0,West,9.2,-,N/A,,Clear,280,2013-09-25 08:56:00
2:56 AM,59.0,48.9,69,29.96,10.0,West,5.8,-,N/A,,Clear,270,2013-09-25 09:56:00
3:56 AM,57.9,48.9,72,29.95,10.0,Calm,Calm,-,N/A,,Clear,0,2013-09-25 10:56:00
4:56 AM,57.9,48.0,70,29.94,10.0,Variable,4.6,-,N/A,,Clear,0,2013-09-25 11:56:00
5:56 AM,57.9,48.9,72,29.94,10.0,West,3.5,-,N/A,,Clear,280,2013-09-25 12:56:00
6:56 AM,57.0,48.0,72,29.95,10.0,West,5.8,-,N/A,,Clear,260,2013-09-25 13:56:00
7:56 AM,59.0,46.9,64,29.96,10.0,Variable,4.6,-,N/A,,Clear,0,2013-09-25 14:56:00
8:56 AM,62.1,46.0,56,29.96,10.0,WNW,9.2,-,N/A,,Clear,300,2013-09-25 15:56:00
9:56 AM,64.9,44.1,47,29.97,10.0,NW,9.2,-,N/A,,Clear,310,2013-09-25 16:56:00
10:56 AM,66.9,42.1,40,29.96,10.0,WNW,8.1,-,N/A,,Clear,290,2013-09-25 17:56:00
11:56 AM,68.0,44.1,42,29.95,10.0,North,17.3,20.7,N/A,,Clear,350,2013-09-25 18:56:00
12:56 PM,69.1,42.1,38,29.94,10.0,NNW,13.8,23.0,N/A,,Clear,330,2013-09-25 19:56:00
1:56 PM,69.1,45.0,42,29.92,10.0,NW,13.8,19.6,N/A,,Clear,310,2013-09-25 20:56:00
2:56 PM,69.1,43.0,39,29.91,10.0,WNW,11.5,20.7,N/A,,Clear,290,2013-09-25 21:56:00
3:56 PM,68.0,43.0,40,29.89,10.0,NW,16.1,26.5,N/A,,Clear,320,2013-09-25 22:56:00
4:56 PM,66.0,41.0,40,29.88,10.0,WNW,13.8,24.2,N/A,,Clear,290,2013-09-25 23:56:00
5:56 PM,64.0,44.1,48,29.87,10.0,West,12.7,24.2,N/A,,Clear,280,2013-09-26 00:56:00
6:56 PM,61.0,44.1,54,29.86,10.0,WNW,11.5,20.7,N/A,,Clear,290,2013-09-26 01:56:00
7:56 PM,60.1,45.0,57,29.87,10.0,WNW,12.7,21.9,N/A,,Clear,290,2013-09-26 02:56:00
8:56 PM,59.0,45.0,60,29.87,10.0,WNW,11.5,19.6,N/A,,Clear,290,2013-09-26 03:56:00
9:56 PM,57.9,45.0,62,29.88,10.0,WNW,5.8,-,N/A,,Clear,290,2013-09-26 04:56:00
10:56 PM,57.9,45.0,62,29.87,10.0,WNW,3.5,-,N/A,,Clear,290,2013-09-26 05:56:00
11:56 PM,57.0,45.0,64,29.87,10.0,West,6.9,-,N/A,,Clear,270,2013-09-26 06:56:00